Weather History for Glasgow, United Kingdom

Change the Weather History Date:

Monday, September 9, 2013

  Actual Average Record
Temperature  
Mean Temperature 52 °F -  
Max Temperature 64 °F 58 °F 69 °F (2004)
Min Temperature 41 °F 45 °F 37 °F (2006)
Degree Days  
Heating Degree Days 12    
Growing Degree Days 2 (Base 50)    
Moisture  
Dew Point 48 °F    
Average Humidity 87    
Maximum Humidity 100    
Minimum Humidity 56    
Precipitation  
Precipitation 0.00 in - - ()
Sea Level Pressure  
Sea Level Pressure 30.04 in    
Wind  
Wind Speed 4 mph ()    
Max Wind Speed 13 mph    
Max Gust Speed -    
Visibility 5.6 miles    
Events Fog , Rain    
Averages and records for this station are not official NWS values.
T = Trace of Precipitation, MM = Missing Value Source: Averaged Metar Reports

Daily Weather History Graph

Daily Weather History Graph

Search for Another Location

Airport:

Trip Planner

Search our weather history database for the weather conditions in past years. The results will help you decide how hot, cold, wet, or windy it might be!

Date:

Astronomy

Sep. 09, 2013 Rise Set
Actual Time 6:37 AM BST 7:50 PM BST
Civil Twilight 5:59 AM BST 8:28 PM BST
Nautical Twilight 5:12 AM BST 9:15 PM BST
Astronomical Twilight 4:20 AM BST 10:06 PM BST
Moon 11:37 AM BST (9/9) 9:00 PM BST (9/9)
Length of Visible Light 14h 28m
Length of Day
13h 12m
Waxing Crescent, 17% of the Moon is Illuminated
Sep 9
Waxing Crescent
Sep 12
First Quarter
Sep 19
Full
Sep 27
Last Quarter
Oct 5
New

Hourly Weather History & Observations

Time (BST) Temp. Windchill Dew Point Humidity Pressure Visibility Wind Dir Wind Speed Gust Speed Precip Events Conditions
12:20 AM 41.0 °F 39.0 °F 41.0 °F 100% 29.95 in 5.0 mi WSW 3.5 mph - N/A Fog Patches of Fog
12:50 AM 44.6 °F 43.1 °F 44.6 °F 100% 29.95 in 6.2 mi West 3.5 mph - N/A Fog Patches of Fog
1:20 AM 44.6 °F - 44.6 °F 100% 29.95 in 6.2 mi Calm Calm - N/A Fog Unknown
1:50 AM 44.6 °F - 44.6 °F 100% 29.95 in 6.2 mi WNW 2.3 mph - N/A Fog Unknown
2:20 AM 44.6 °F - 44.6 °F 100% 29.95 in - Variable 2.3 mph - N/A   Clear
2:50 AM 44.6 °F - 44.6 °F 100% 29.95 in - Calm Calm - N/A   Clear
3:20 AM 44.6 °F 43.1 °F 44.6 °F 100% 29.95 in - West 3.5 mph - N/A   Clear
3:50 AM 42.8 °F - 42.8 °F 100% 29.98 in 0.6 mi Calm Calm - N/A Fog Fog
4:20 AM 44.6 °F - 44.6 °F 100% 29.98 in 0.2 mi Variable 2.3 mph - N/A Fog Patches of Fog
4:50 AM 44.6 °F 43.1 °F 44.6 °F 100% 29.98 in 4.3 mi SW 3.5 mph - N/A Fog Fog
5:20 AM 44.6 °F 43.1 °F 44.6 °F 100% 29.98 in 2.8 mi Variable 3.5 mph - N/A   Partly Cloudy
5:50 AM 44.6 °F - 44.6 °F 100% 29.98 in 5.0 mi West 2.3 mph - N/A   Unknown
6:20 AM 44.6 °F - 44.6 °F 100% 29.98 in - WSW 2.3 mph - N/A Fog Fog
6:50 AM 44.6 °F - 44.6 °F 100% 29.98 in 5.0 mi West 2.3 mph - N/A   Partly Cloudy
7:20 AM 44.6 °F - 44.6 °F 100% 29.98 in 5.6 mi Calm Calm - N/A   Scattered Clouds
7:50 AM 46.4 °F - 46.4 °F 100% 30.01 in 5.6 mi WNW 2.3 mph - N/A   Partly Cloudy
8:20 AM 48.2 °F - 48.2 °F 100% 30.01 in 5.6 mi West 3.5 mph - N/A   Partly Cloudy
8:50 AM 50.0 °F - 50.0 °F 100% 30.01 in 5.6 mi WSW 3.5 mph - N/A   Partly Cloudy
9:20 AM 50.0 °F - 50.0 °F 100% 30.01 in 5.6 mi WSW 4.6 mph - N/A   Partly Cloudy
9:50 AM 51.8 °F - 51.8 °F 100% 30.01 in 5.6 mi West 4.6 mph - N/A   Scattered Clouds
10:20 AM 53.6 °F - 51.8 °F 94% 30.01 in 6.2 mi West 4.6 mph - N/A   Scattered Clouds
10:50 AM 53.6 °F - 51.8 °F 94% 30.04 in 6.2 mi NW 5.8 mph - N/A   Partly Cloudy
11:20 AM 55.4 °F - 51.8 °F 88% 30.04 in 6.2 mi NW 6.9 mph - N/A   Scattered Clouds
11:50 AM 57.2 °F - 51.8 °F 82% 30.04 in 6.2 mi West 4.6 mph - N/A   Scattered Clouds
12:20 PM 59.0 °F - 51.8 °F 77% 30.04 in 6.2 mi NW 4.6 mph - N/A   Scattered Clouds
12:50 PM 59.0 °F - 50.0 °F 72% 30.04 in 6.2 mi NW 5.8 mph - N/A   Mostly Cloudy
1:20 PM 60.8 °F - 50.0 °F 68% 30.04 in 6.2 mi North 4.6 mph - N/A   Scattered Clouds
1:50 PM 60.8 °F - 50.0 °F 68% 30.04 in 6.2 mi WNW 5.8 mph - N/A   Mostly Cloudy
2:20 PM 60.8 °F - 50.0 °F 68% 30.04 in 6.2 mi NW 4.6 mph - N/A   Scattered Clouds
2:50 PM 60.8 °F - 50.0 °F 68% 30.04 in 6.2 mi WNW 5.8 mph - N/A   Scattered Clouds
3:20 PM 62.6 °F - 48.2 °F 59% 30.04 in 6.2 mi NW 5.8 mph - N/A   Scattered Clouds
3:50 PM 64.4 °F - 48.2 °F 56% 30.04 in 6.2 mi NW 6.9 mph - N/A   Scattered Clouds
4:20 PM 55.4 °F - 48.2 °F 77% 30.06 in 6.2 mi NNE 12.7 mph - N/A Rain Light Rain Showers
4:50 PM 55.4 °F - 50.0 °F 82% 30.06 in 6.2 mi West 4.6 mph - N/A Rain Light Rain Showers
5:20 PM 55.4 °F - 51.8 °F 88% 30.06 in 6.2 mi WSW 5.8 mph - N/A   Scattered Clouds
5:50 PM 57.2 °F - 50.0 °F 77% 30.06 in 6.2 mi West 5.8 mph - N/A   Scattered Clouds
6:20 PM 55.4 °F - 51.8 °F 88% 30.09 in 6.2 mi West 5.8 mph - N/A   Scattered Clouds
6:50 PM 55.4 °F - 51.8 °F 88% 30.09 in 6.2 mi West 5.8 mph - N/A   Scattered Clouds
7:20 PM 55.4 °F - 50.0 °F 82% 30.09 in 6.2 mi NW 9.2 mph - N/A   Scattered Clouds
7:50 PM 55.4 °F - 48.2 °F 77% 30.12 in 6.2 mi NW 8.1 mph - N/A   Scattered Clouds
8:20 PM 55.4 °F - 48.2 °F 77% 30.12 in 6.2 mi NW 6.9 mph - N/A   Scattered Clouds
8:50 PM 55.4 °F - 46.4 °F 72% 30.12 in 6.2 mi NW 8.1 mph - N/A   Partly Cloudy
9:20 PM 53.6 °F - 46.4 °F 77% 30.15 in 6.2 mi WNW 6.9 mph - N/A   Partly Cloudy
9:50 PM 50.0 °F - 46.4 °F 87% 30.15 in 6.2 mi WSW 6.9 mph - N/A   Partly Cloudy
10:20 PM 53.6 °F - 46.4 °F 77% 30.15 in - WNW 8.1 mph - N/A   Clear
10:50 PM 53.6 °F - 44.6 °F 72% 30.15 in - NW 6.9 mph - N/A   Clear
11:20 PM 53.6 °F - 46.4 °F 77% 30.15 in - NW 6.9 mph - N/A   Clear
11:50 PM 51.8 °F - 46.4 °F 82% 30.18 in - WSW 4.6 mph - N/A   Clear